This is the latest recevied weather packets stored in our database for station/object KD2DXJ. If no packets are shown the sender has not sent any weather packets the latest 10 day(s).
| Time | Temp. | Humidity | Pressure | Rain* | Wind** | Luminosity | Snow |
|---|---|---|---|---|---|---|---|
| 1777527687 | 9.44° C | 99% | 1003.5 hPa | 3.05 mm | - | 0 W/m² | - |
| 1777527383 | 9.44° C | 99% | 1003.6 hPa | 1.27 mm | - | 0 W/m² | - |
| 1777527078 | 9.44° C | 99% | 1003.6 hPa | 1.78 mm | - | 0 W/m² | - |
| 1777526775 | 9.44° C | 99% | 1003.5 hPa | 3.05 mm | - | 0 W/m² | - |
| 1777526475 | 9.44° C | 99% | 1003.6 hPa | 1.27 mm | - | 0 W/m² | - |
| 1777526170 | 9.44° C | 99% | 1003.7 hPa | 1.27 mm | - | 0 W/m² | - |
| 1777525866 | 9.44° C | 99% | 1003.8 hPa | 3.05 mm | - | 0 W/m² | - |
| 1777525564 | 9.44° C | 99% | 1003.8 hPa | 3.05 mm | - | 0 W/m² | - |
| 1777525261 | 9.44° C | 99% | 1003.9 hPa | 1.27 mm | - | 0 W/m² | - |
| 1777524956 | 9.44° C | 99% | 1003.9 hPa | 2.29 mm | - | 0 W/m² | - |
| 1777524654 | 9.44° C | 99% | 1003.9 hPa | 3.05 mm | - | 0 W/m² | - |
| 1777524353 | 9.44° C | 99% | 1004.1 hPa | 3.05 mm | - | 0 W/m² | - |
| 1777524053 | 9.44° C | 99% | 1003.9 hPa | 1.27 mm | - | 0 W/m² | - |
| 1777523750 | 9.44° C | 99% | 1004 hPa | 0 mm | - | 0 W/m² | - |
| 1777523446 | 9.44° C | 99% | 1004.1 hPa | 0 mm | - | 0 W/m² | - |
| 1777523143 | 9.44° C | 99% | 1004 hPa | 0 mm | - | 0 W/m² | - |
| 1777522838 | 9.44° C | 99% | 1004 hPa | 1.78 mm | - | 0 W/m² | - |
| 1777522536 | 9.44° C | 99% | 1004.3 hPa | 3.05 mm | - | 0 W/m² | - |
| 1777522233 | 9.44° C | 99% | 1004.2 hPa | 1.27 mm | - | 0 W/m² | - |
| 1777521930 | 9.44° C | 99% | 1004.5 hPa | 1.27 mm | - | 0 W/m² | - |
| 1777521627 | 10° C | 99% | 1004.5 hPa | 1.27 mm | - | 0 W/m² | - |
| 1777521324 | 10° C | 99% | 1004.4 hPa | 1.78 mm | - | 0 W/m² | - |
| 1777521021 | 10° C | 99% | 1004.4 hPa | 1.78 mm | - | 0 W/m² | - |
| 1777520718 | 10° C | 99% | 1004.5 hPa | 1.27 mm | - | 0 W/m² | - |
| 1777520415 | 10° C | 99% | 1004.4 hPa | 1.27 mm | - | 0 W/m² | - |
* Rain latest hour (hover to see other rain measurements)
** Current wind speed in m/s (hover to see current wind gust speed)